Location: Cartignies
(50.0929°N, 3.8447°E)
Time: 14:32:37
(UTC+00:00)

CBERS-1 - Pass Details

Date: 12 January 2026
Orbit: 765 x 772 km, 98.9° (Epoch: 16 February)

Event Time Altitude Azimuth Distance (km) Brightness Sun altitude
Rises 16:42:30 0° 165° (SSE) 3,227 7.4 -5.8°
Reaches altitude 10° 16:44:48 10° 166° (SSE) 2,304 6.7 -6.1°
Maximum altitude 16:49:53 82° 254° (WSW) 781 4.2 -6.9°
Drops below altitude 10° 16:55:00 10° 343° (NNW) 2,317 6.4 -7.6°
Sets 16:57:19 0° 345° (NNW) 3,247 7.2 -7.9°
